DAL69 KSAN-KLAX

Flight info

Callsign DAL69
Flight time 0h 29m
Altitude 10000
Route CWARD2 SLI
Aircraft A320/M-SDE3FGHIRWY/LB1

Departure

Time 2026-04-19 23:57
Airport San Diego International Airport (KSAN)

Arrival

Time 2026-04-20 00:27
Airport Los Angeles International Airport (KLAX)
Time Latitude Longitude Altitude Speed Heading
2026-04-19 23:39 32.73345 -117.20472 23 ft 0 kts 84°
2026-04-19 23:47 32.73344 -117.20480 23 ft 2 kts 84°
2026-04-19 23:47 32.73342 -117.20503 23 ft 3 kts 85°
2026-04-19 23:47 32.73341 -117.20520 23 ft 2 kts 85°
2026-04-19 23:50 32.73350 -117.20511 26 ft 2 kts 29°
2026-04-19 23:50 32.73370 -117.20522 23 ft 4 kts 325°
2026-04-19 23:51 32.73390 -117.20539 23 ft 3 kts 326°
2026-04-19 23:51 32.73451 -117.20559 23 ft 17 kts
2026-04-19 23:51 32.73542 -117.20471 23 ft 17 kts 54°
2026-04-19 23:51 32.73574 -117.20324 23 ft 20 kts 93°
2026-04-19 23:52 32.73545 -117.20173 24 ft 18 kts 107°
2026-04-19 23:52 32.73509 -117.20024 23 ft 26 kts 106°
2026-04-19 23:52 32.73438 -117.19731 23 ft 33 kts 106°
2026-04-19 23:52 32.73374 -117.19469 23 ft 34 kts 106°
2026-04-19 23:53 32.73306 -117.19189 22 ft 36 kts 106°
2026-04-19 23:53 32.73237 -117.18900 23 ft 37 kts 105°
2026-04-19 23:53 32.73166 -117.18611 21 ft 30 kts 107°
2026-04-19 23:53 32.73108 -117.18370 22 ft 32 kts 106°
2026-04-19 23:54 32.73045 -117.18112 20 ft 33 kts 106°
2026-04-19 23:54 32.72989 -117.17881 21 ft 26 kts 107°
2026-04-19 23:54 32.72950 -117.17726 21 ft 10 kts 97°
2026-04-19 23:54 32.72954 -117.17681 21 ft 0 kts 77°
2026-04-19 23:55 32.72958 -117.17665 23 ft 12 kts 73°
2026-04-19 23:56 32.73034 -117.17648 21 ft 14 kts 302°
2026-04-19 23:56 32.73042 -117.17674 20 ft 0 kts 287°
2026-04-19 23:57 32.73055 -117.17723 20 ft 30 kts 287°
2026-04-19 23:57 32.73185 -117.18267 21 ft 103 kts 286°
2026-04-19 23:57 32.73440 -117.19303 69 ft 152 kts 286°
2026-04-19 23:57 32.73757 -117.20553 678 ft 159 kts 287°
2026-04-19 23:58 32.74244 -117.21733 1479 ft 159 kts 299°
2026-04-19 23:58 32.74864 -117.22860 2073 ft 171 kts 302°
2026-04-19 23:58 32.75577 -117.24112 2438 ft 194 kts 302°
2026-04-19 23:58 32.76099 -117.25030 2667 ft 211 kts 302°
2026-04-19 23:59 32.77269 -117.27100 3285 ft 243 kts 302°
2026-04-19 23:59 32.78253 -117.28860 3793 ft 265 kts 302°
2026-04-19 23:59 32.79294 -117.30725 4606 ft 275 kts 302°
2026-04-19 23:59 32.80007 -117.31985 5196 ft 279 kts 303°
2026-04-20 00:00 32.81170 -117.33878 6082 ft 285 kts 305°
2026-04-20 00:00 32.82397 -117.35769 6944 ft 290 kts 306°
2026-04-20 00:00 32.83641 -117.37652 7833 ft 294 kts 306°
2026-04-20 00:00 32.84912 -117.39580 8744 ft 297 kts 306°
2026-04-20 00:01 32.86193 -117.41538 9580 ft 302 kts 306°
2026-04-20 00:01 32.87482 -117.43526 9882 ft 302 kts 306°
2026-04-20 00:01 32.90039 -117.47491 9985 ft 301 kts 306°
2026-04-20 00:02 32.91305 -117.49456 9983 ft 301 kts 306°
2026-04-20 00:02 32.92576 -117.51431 9984 ft 301 kts 306°
2026-04-20 00:02 32.93848 -117.53408 9981 ft 301 kts 306°
2026-04-20 00:02 32.95107 -117.55370 9987 ft 301 kts 306°
2026-04-20 00:03 32.96379 -117.57354 9989 ft 301 kts 306°
2026-04-20 00:03 32.97654 -117.59342 9985 ft 301 kts 306°
2026-04-20 00:03 32.98926 -117.61324 9976 ft 300 kts 306°
2026-04-20 00:03 33.00197 -117.63304 9979 ft 301 kts 306°
2026-04-20 00:04 33.01451 -117.65260 9984 ft 300 kts 306°
2026-04-20 00:04 33.02721 -117.67247 9981 ft 301 kts 306°
2026-04-20 00:04 33.03986 -117.69227 9978 ft 301 kts 306°
2026-04-20 00:04 33.05259 -117.71220 9971 ft 301 kts 306°
2026-04-20 00:05 33.06596 -117.73143 9976 ft 302 kts 314°
2026-04-20 00:05 33.08185 -117.74791 9979 ft 302 kts 319°
2026-04-20 00:05 33.09770 -117.76392 9972 ft 302 kts 318°
2026-04-20 00:05 33.11374 -117.78022 9969 ft 303 kts 318°
2026-04-20 00:06 33.12976 -117.79657 9969 ft 303 kts 318°
2026-04-20 00:06 33.14580 -117.81291 9970 ft 303 kts 318°
2026-04-20 00:06 33.16188 -117.82924 9977 ft 303 kts 318°
2026-04-20 00:06 33.17772 -117.84536 9972 ft 303 kts 319°
2026-04-20 00:07 33.19541 -117.85916 9977 ft 304 kts 334°
2026-04-20 00:07 33.21542 -117.86739 9974 ft 305 kts 348°
2026-04-20 00:07 33.23625 -117.87245 9975 ft 305 kts 348°
2026-04-20 00:07 33.25680 -117.87749 9969 ft 305 kts 348°
2026-04-20 00:08 33.27763 -117.88265 9966 ft 305 kts 348°
2026-04-20 00:08 33.29842 -117.88784 9971 ft 305 kts 348°
2026-04-20 00:08 33.31923 -117.89308 9972 ft 305 kts 348°
2026-04-20 00:08 33.34010 -117.89832 9969 ft 305 kts 348°
2026-04-20 00:09 33.36088 -117.90349 9974 ft 305 kts 348°
2026-04-20 00:09 33.38143 -117.90862 9969 ft 305 kts 347°
2026-04-20 00:09 33.40189 -117.91571 9969 ft 305 kts 342°
2026-04-20 00:09 33.42230 -117.92314 9969 ft 305 kts 342°
2026-04-20 00:10 33.44242 -117.93042 9963 ft 306 kts 343°
2026-04-20 00:10 33.46284 -117.93778 9969 ft 306 kts 343°
2026-04-20 00:10 33.48331 -117.94519 9963 ft 307 kts 342°
2026-04-20 00:10 33.50381 -117.95265 9969 ft 307 kts 342°
2026-04-20 00:11 33.52425 -117.96011 9972 ft 307 kts 342°
2026-04-20 00:11 33.54450 -117.96750 9977 ft 307 kts 342°
2026-04-20 00:11 33.56502 -117.97500 9972 ft 307 kts 342°
2026-04-20 00:11 33.58548 -117.98248 9977 ft 307 kts 342°
2026-04-20 00:12 33.60599 -117.98996 9929 ft 306 kts 342°
2026-04-20 00:12 33.62631 -117.99738 9603 ft 303 kts 342°
2026-04-20 00:12 33.64654 -118.00476 9477 ft 305 kts 342°
2026-04-20 00:12 33.66664 -118.01209 9349 ft 306 kts 342°
2026-04-20 00:13 33.68709 -118.01954 8899 ft 308 kts 343°
2026-04-20 00:13 33.70762 -118.02702 8492 ft 306 kts 343°
2026-04-20 00:13 33.72814 -118.03454 8072 ft 305 kts 343°
2026-04-20 00:13 33.74802 -118.04183 7956 ft 292 kts 343°
2026-04-20 00:14 33.76693 -118.04874 7786 ft 281 kts 343°
2026-04-20 00:14 33.78528 -118.05546 7661 ft 270 kts 343°
2026-04-20 00:14 33.80280 -118.06228 7546 ft 258 kts 339°
2026-04-20 00:14 33.81917 -118.07005 7428 ft 247 kts 338°
2026-04-20 00:15 33.83457 -118.07773 7283 ft 230 kts 337°
2026-04-20 00:15 33.84873 -118.08489 7209 ft 212 kts 337°
2026-04-20 00:15 33.86198 -118.09161 6979 ft 208 kts 337°
2026-04-20 00:15 33.87532 -118.09834 6672 ft 207 kts 338°
2026-04-20 00:16 33.88869 -118.10474 6412 ft 206 kts 345°
2026-04-20 00:16 33.90266 -118.10760 6134 ft 202 kts 359°
2026-04-20 00:16 33.91669 -118.10849 5835 ft 201 kts 356°
2026-04-20 00:16 33.93066 -118.10980 5547 ft 200 kts 360°
2026-04-20 00:17 33.94437 -118.11025 5288 ft 198 kts
2026-04-20 00:17 33.95816 -118.11057 5280 ft 199 kts
2026-04-20 00:17 33.97198 -118.11084 5130 ft 197 kts
2026-04-20 00:17 33.98573 -118.11113 4977 ft 198 kts
2026-04-20 00:18 33.99937 -118.11143 4983 ft 198 kts
2026-04-20 00:18 34.01314 -118.11242 4978 ft 199 kts 348°
2026-04-20 00:18 34.02530 -118.12018 4979 ft 200 kts 314°
2026-04-20 00:18 34.03208 -118.13437 4993 ft 195 kts 279°
2026-04-20 00:19 34.03179 -118.15034 4989 ft 189 kts 247°
2026-04-20 00:19 34.02446 -118.16232 4996 ft 179 kts 207°
2026-04-20 00:19 34.01283 -118.16516 4991 ft 170 kts 166°
2026-04-20 00:19 34.00309 -118.15751 4996 ft 172 kts 124°
2026-04-20 00:20 34.00034 -118.14355 4998 ft 177 kts 90°
2026-04-20 00:20 34.00223 -118.12889 4981 ft 180 kts 82°
2026-04-20 00:20 34.00192 -118.11417 4967 ft 173 kts 115°
2026-04-20 00:20 33.99386 -118.10394 4977 ft 172 kts 155°
2026-04-20 00:21 33.98215 -118.10138 4731 ft 179 kts 184°
2026-04-20 00:21 33.97072 -118.10722 4479 ft 181 kts 217°
2026-04-20 00:21 33.96397 -118.12006 4283 ft 188 kts 253°
2026-04-20 00:21 33.96214 -118.13576 4060 ft 188 kts 261°
2026-04-20 00:22 33.96066 -118.15136 3812 ft 187 kts 259°
2026-04-20 00:22 33.95912 -118.16699 3572 ft 188 kts 259°
2026-04-20 00:22 33.95759 -118.18233 3350 ft 186 kts 261°
2026-04-20 00:22 33.95605 -118.19775 3112 ft 185 kts 261°
2026-04-20 00:23 33.95451 -118.21306 2873 ft 182 kts 261°
2026-04-20 00:23 33.95299 -118.22820 2633 ft 180 kts 260°
2026-04-20 00:23 33.95150 -118.24304 2400 ft 176 kts 261°
2026-04-20 00:23 33.95008 -118.25718 2161 ft 163 kts 262°
2026-04-20 00:24 33.94882 -118.26974 1981 ft 145 kts 259°
2026-04-20 00:24 33.94766 -118.28128 1798 ft 133 kts 259°
2026-04-20 00:24 33.94655 -118.29221 1615 ft 131 kts 260°
2026-04-20 00:24 33.94545 -118.30303 1450 ft 129 kts 262°
2026-04-20 00:25 33.94438 -118.31355 1279 ft 127 kts 262°
2026-04-20 00:25 33.94330 -118.32421 1110 ft 130 kts 261°
2026-04-20 00:25 33.94220 -118.33502 933 ft 129 kts 261°
2026-04-20 00:25 33.94113 -118.34564 757 ft 127 kts 261°
2026-04-20 00:26 33.94004 -118.35628 586 ft 128 kts 263°
2026-04-20 00:26 33.93895 -118.36693 405 ft 128 kts 262°
2026-04-20 00:26 33.93786 -118.37758 240 ft 128 kts 261°
2026-04-20 00:26 33.93689 -118.38810 97 ft 119 kts 259°
2026-04-20 00:27 33.93600 -118.39621 94 ft 73 kts 263°
2026-04-20 00:27 33.93570 -118.40118 96 ft 47 kts 275°
2026-04-20 00:27 33.93614 -118.40330 96 ft 11 kts 288°
2026-04-20 00:27 33.93615 -118.40334 97 ft 0 kts 287°
2026-04-20 00:28 33.93618 -118.40349 95 ft 11 kts 283°
2026-04-20 00:29 33.93620 -118.40488 95 ft 18 kts 264°
2026-04-20 00:29 33.93604 -118.40650 96 ft 21 kts 263°
2026-04-20 00:29 33.93609 -118.40828 97 ft 23 kts 292°